Location: Heiligenberg
(48.5381°N, 7.3897°E)
Time: 23:04:34
(UTC+00:00)

Cosmos 2221 Rocket - Pass Details

Date: 26 May 2022
Orbit: 621 x 647 km, 82.5° (Epoch: 02 July)

Event Time Altitude Azimuth Distance (km) Brightness Sun altitude
Exits shadow 00:06:51 42° 228° (SW) 895 4.0 -19.8°
Maximum altitude 00:08:04 58° 282° (WNW) 730 3.8 -19.8°
Drops below altitude 10° 00:12:26 10° 3° (N) 2,002 7.4 -19.6°
Sets 00:14:43 0° 7° (N) 2,913 8.6 -19.6°
